ZIW YSHK-YJUR

Flight info

Callsign ZIW
Flight time 1h 37m
Altitude 9000
Route BOBUS W14 GEL Z41 AVDIS
Aircraft DA42/L-SBDGRY/S

Departure

Time 2026-04-30 02:56
Airport Shark Bay Airport (YSHK)

Arrival

Time 2026-04-30 04:33
Airport Jurien Bay Airport (YJUR)
Time Latitude Longitude Altitude Speed Heading
2026-04-30 02:46 -25.88903 113.57700 123 ft 0 kts 178°
2026-04-30 02:51 -25.88907 113.57700 123 ft 1 kts 187°
2026-04-30 02:52 -25.88910 113.57689 123 ft 2 kts 286°
2026-04-30 02:52 -25.88909 113.57685 123 ft 0 kts 295°
2026-04-30 02:53 -25.88905 113.57678 123 ft 3 kts 301°
2026-04-30 02:53 -25.88899 113.57667 123 ft 1 kts 300°
2026-04-30 02:53 -25.88894 113.57653 123 ft 1 kts 284°
2026-04-30 02:54 -25.88893 113.57647 123 ft 1 kts 271°
2026-04-30 02:54 -25.88893 113.57629 123 ft 3 kts 266°
2026-04-30 02:54 -25.88894 113.57612 123 ft 0 kts 271°
2026-04-30 02:54 -25.88894 113.57606 123 ft 1 kts 268°
2026-04-30 02:55 -25.88896 113.57573 123 ft 5 kts 265°
2026-04-30 02:55 -25.88907 113.57558 123 ft 6 kts 176°
2026-04-30 02:55 -25.89250 113.57571 123 ft 79 kts 176°
2026-04-30 02:55 -25.89836 113.57582 311 ft 85 kts 172°
2026-04-30 02:56 -25.90427 113.57616 620 ft 90 kts 174°
2026-04-30 02:56 -25.91070 113.57745 935 ft 97 kts 154°
2026-04-30 02:56 -25.91582 113.58265 1251 ft 102 kts 129°
2026-04-30 02:56 -25.91998 113.58898 1605 ft 102 kts 133°
2026-04-30 02:57 -25.92529 113.59413 1929 ft 104 kts 147°
2026-04-30 02:57 -25.93123 113.59854 2294 ft 103 kts 148°
2026-04-30 02:57 -25.93724 113.60302 2622 ft 106 kts 147°
2026-04-30 02:57 -25.94334 113.60752 2949 ft 108 kts 149°
2026-04-30 02:58 -25.94981 113.61198 3272 ft 110 kts 150°
2026-04-30 02:58 -25.95648 113.61640 3581 ft 114 kts 151°
2026-04-30 02:58 -25.96333 113.62084 3927 ft 114 kts 152°
2026-04-30 02:58 -25.97027 113.62530 4257 ft 117 kts 152°
2026-04-30 02:59 -25.97736 113.62980 4583 ft 120 kts 152°
2026-04-30 02:59 -25.98464 113.63441 4919 ft 121 kts 153°
2026-04-30 02:59 -25.99200 113.63908 5238 ft 125 kts 153°
2026-04-30 02:59 -25.99955 113.64383 5585 ft 125 kts 153°
2026-04-30 03:00 -26.00723 113.64872 5928 ft 127 kts 154°
2026-04-30 03:00 -26.01497 113.65360 6291 ft 127 kts 154°
2026-04-30 03:00 -26.02255 113.65839 6665 ft 126 kts 154°
2026-04-30 03:00 -26.03017 113.66320 7011 ft 127 kts 154°
2026-04-30 03:01 -26.03787 113.66806 7374 ft 126 kts 154°
2026-04-30 03:01 -26.04549 113.67288 7715 ft 128 kts 154°
2026-04-30 03:01 -26.05322 113.67777 8076 ft 128 kts 154°
2026-04-30 03:01 -26.06095 113.68265 8416 ft 130 kts 154°
2026-04-30 03:02 -26.06864 113.68751 8786 ft 128 kts 154°
2026-04-30 03:02 -26.07677 113.69263 8975 ft 143 kts 154°
2026-04-30 03:02 -26.08606 113.69846 9007 ft 161 kts 154°
2026-04-30 03:02 -26.09615 113.70484 9013 ft 172 kts 154°
2026-04-30 03:03 -26.10672 113.71152 9014 ft 178 kts 154°
2026-04-30 03:03 -26.12876 113.72547 9007 ft 183 kts 153°
2026-04-30 03:03 -26.13976 113.73247 9014 ft 183 kts 154°
2026-04-30 03:04 -26.15085 113.73950 9013 ft 184 kts 154°
2026-04-30 03:04 -26.16204 113.74657 9013 ft 184 kts 154°
2026-04-30 03:04 -26.17330 113.75369 9011 ft 184 kts 154°
2026-04-30 03:04 -26.18456 113.76087 9014 ft 185 kts 153°
2026-04-30 03:05 -26.19574 113.76794 9009 ft 186 kts 154°
2026-04-30 03:05 -26.20708 113.77513 9006 ft 186 kts 153°
2026-04-30 03:05 -26.21821 113.78220 9009 ft 185 kts 154°
2026-04-30 03:05 -26.22953 113.78936 9012 ft 185 kts 154°
2026-04-30 03:06 -26.24081 113.79654 9007 ft 185 kts 154°
2026-04-30 03:06 -26.25194 113.80360 9006 ft 186 kts 154°
2026-04-30 03:06 -26.26331 113.81083 9000 ft 186 kts 154°
2026-04-30 03:06 -26.27510 113.81621 8989 ft 180 kts 182°
2026-04-30 03:07 -26.28732 113.81451 9000 ft 177 kts 195°
2026-04-30 03:07 -26.29947 113.81197 8994 ft 177 kts 196°
2026-04-30 03:07 -26.31171 113.80927 8992 ft 178 kts 196°
2026-04-30 03:07 -26.32384 113.80659 8992 ft 177 kts 196°
2026-04-30 03:08 -26.33596 113.80391 8990 ft 177 kts 196°
2026-04-30 03:08 -26.34810 113.80125 8993 ft 177 kts 196°
2026-04-30 03:08 -26.36026 113.79855 8993 ft 177 kts 196°
2026-04-30 03:08 -26.37241 113.79588 8997 ft 177 kts 196°
2026-04-30 03:09 -26.38456 113.79319 8993 ft 177 kts 196°
2026-04-30 03:09 -26.39670 113.79055 8992 ft 176 kts 196°
2026-04-30 03:09 -26.40879 113.78790 8995 ft 176 kts 195°
2026-04-30 03:09 -26.42111 113.78664 8996 ft 179 kts 185°
2026-04-30 03:10 -26.43369 113.78750 8998 ft 182 kts 178°
2026-04-30 03:10 -26.44624 113.78976 8996 ft 183 kts 173°
2026-04-30 03:10 -26.45857 113.79291 8995 ft 184 kts 170°
2026-04-30 03:10 -26.47097 113.79666 8995 ft 184 kts 168°
2026-04-30 03:11 -26.48340 113.80085 8995 ft 184 kts 167°
2026-04-30 03:11 -26.49557 113.80518 8994 ft 184 kts 166°
2026-04-30 03:11 -26.50781 113.80965 9001 ft 184 kts 165°
2026-04-30 03:11 -26.51993 113.81419 9003 ft 184 kts 165°
2026-04-30 03:12 -26.53217 113.81881 9004 ft 184 kts 165°
2026-04-30 03:12 -26.54426 113.82343 9002 ft 184 kts 165°
2026-04-30 03:12 -26.55648 113.82811 9003 ft 184 kts 165°
2026-04-30 03:12 -26.56855 113.83273 9002 ft 183 kts 164°
2026-04-30 03:13 -26.58064 113.83739 9002 ft 183 kts 165°
2026-04-30 03:13 -26.59284 113.84209 8999 ft 184 kts 165°
2026-04-30 03:13 -26.60493 113.84676 8998 ft 184 kts 165°
2026-04-30 03:13 -26.61696 113.85136 9005 ft 184 kts 165°
2026-04-30 03:14 -26.62921 113.85609 9011 ft 185 kts 165°
2026-04-30 03:14 -26.64135 113.86078 9010 ft 185 kts 165°
2026-04-30 03:14 -26.65370 113.86552 9008 ft 185 kts 165°
2026-04-30 03:14 -26.66581 113.87017 9007 ft 185 kts 165°
2026-04-30 03:15 -26.67804 113.87489 9008 ft 184 kts 165°
2026-04-30 03:15 -26.69025 113.87961 9010 ft 184 kts 165°
2026-04-30 03:15 -26.70246 113.88430 9011 ft 184 kts 165°
2026-04-30 03:15 -26.71451 113.88894 9013 ft 184 kts 164°
2026-04-30 03:16 -26.72675 113.89367 9015 ft 184 kts 164°
2026-04-30 03:16 -26.73886 113.89833 9015 ft 184 kts 164°
2026-04-30 03:16 -26.75084 113.90297 9016 ft 184 kts 165°
2026-04-30 03:16 -26.76305 113.90770 9015 ft 184 kts 165°
2026-04-30 03:17 -26.77527 113.91240 9015 ft 185 kts 165°
2026-04-30 03:17 -26.78731 113.91707 9019 ft 184 kts 164°
2026-04-30 03:17 -26.79947 113.92175 9011 ft 184 kts 165°
2026-04-30 03:17 -26.81160 113.92646 9017 ft 184 kts 165°
2026-04-30 03:18 -26.82371 113.93114 9020 ft 184 kts 165°
2026-04-30 03:18 -26.83585 113.93586 9021 ft 184 kts 165°
2026-04-30 03:18 -26.84805 113.94054 9019 ft 184 kts 165°
2026-04-30 03:18 -26.86024 113.94524 9016 ft 184 kts 165°
2026-04-30 03:19 -26.87225 113.94991 9011 ft 184 kts 165°
2026-04-30 03:19 -26.88444 113.95464 9013 ft 184 kts 165°
2026-04-30 03:19 -26.89651 113.95927 9014 ft 184 kts 165°
2026-04-30 03:19 -26.90865 113.96398 9016 ft 184 kts 165°
2026-04-30 03:20 -26.92081 113.96867 9021 ft 184 kts 165°
2026-04-30 03:20 -26.93297 113.97340 9018 ft 184 kts 164°
2026-04-30 03:20 -26.94517 113.97812 9019 ft 185 kts 164°
2026-04-30 03:20 -26.95737 113.98286 9017 ft 185 kts 164°
2026-04-30 03:21 -26.96940 113.98753 9020 ft 185 kts 164°
2026-04-30 03:21 -26.98161 113.99226 9021 ft 185 kts 164°
2026-04-30 03:21 -26.99382 113.99700 9024 ft 185 kts 165°
2026-04-30 03:21 -27.00607 114.00176 9021 ft 184 kts 165°
2026-04-30 03:22 -27.01809 114.00644 9026 ft 184 kts 165°
2026-04-30 03:22 -27.03031 114.01118 9024 ft 184 kts 165°
2026-04-30 03:22 -27.04239 114.01585 9017 ft 184 kts 165°
2026-04-30 03:22 -27.05456 114.02058 9018 ft 183 kts 165°
2026-04-30 03:23 -27.06653 114.02520 9018 ft 183 kts 165°
2026-04-30 03:23 -27.07861 114.02989 9020 ft 183 kts 165°
2026-04-30 03:23 -27.09082 114.03464 9020 ft 184 kts 165°
2026-04-30 03:23 -27.10298 114.03934 9017 ft 184 kts 165°
2026-04-30 03:24 -27.11503 114.04404 9022 ft 185 kts 164°
2026-04-30 03:24 -27.12732 114.04882 9019 ft 184 kts 164°
2026-04-30 03:24 -27.13940 114.05352 9019 ft 184 kts 164°
2026-04-30 03:24 -27.15159 114.05826 9027 ft 184 kts 164°
2026-04-30 03:25 -27.16380 114.06300 9014 ft 184 kts 164°
2026-04-30 03:25 -27.17585 114.06773 9008 ft 183 kts 165°
2026-04-30 03:25 -27.18788 114.07240 9007 ft 183 kts 165°
2026-04-30 03:25 -27.19995 114.07711 9018 ft 183 kts 165°
2026-04-30 03:26 -27.21200 114.08180 9026 ft 184 kts 165°
2026-04-30 03:26 -27.22415 114.08651 9024 ft 184 kts 165°
2026-04-30 03:26 -27.23625 114.09123 9016 ft 184 kts 165°
2026-04-30 03:26 -27.24837 114.09594 9020 ft 184 kts 165°
2026-04-30 03:27 -27.26053 114.10068 9015 ft 184 kts 165°
2026-04-30 03:27 -27.27255 114.10536 9020 ft 184 kts 165°
2026-04-30 03:27 -27.28471 114.11011 9013 ft 184 kts 165°
2026-04-30 03:27 -27.29674 114.11481 9014 ft 183 kts 165°
2026-04-30 03:28 -27.30895 114.11957 9015 ft 183 kts 165°
2026-04-30 03:28 -27.32107 114.12428 9019 ft 183 kts 165°
2026-04-30 03:28 -27.33318 114.12903 9016 ft 184 kts 164°
2026-04-30 03:28 -27.34527 114.13375 9016 ft 184 kts 165°
2026-04-30 03:29 -27.35739 114.13849 9017 ft 184 kts 165°
2026-04-30 03:29 -27.36938 114.14314 9019 ft 184 kts 165°
2026-04-30 03:29 -27.38156 114.14791 9018 ft 184 kts 165°
2026-04-30 03:29 -27.39374 114.15269 9014 ft 184 kts 165°
2026-04-30 03:30 -27.40571 114.15735 9016 ft 184 kts 165°
2026-04-30 03:30 -27.41792 114.16213 9014 ft 184 kts 165°
2026-04-30 03:30 -27.42995 114.16682 9010 ft 184 kts 165°
2026-04-30 03:30 -27.44211 114.17158 9017 ft 183 kts 165°
2026-04-30 03:31 -27.45425 114.17634 9020 ft 184 kts 165°
2026-04-30 03:31 -27.46628 114.18104 9018 ft 184 kts 165°
2026-04-30 03:31 -27.47836 114.18576 9014 ft 184 kts 165°
2026-04-30 03:31 -27.49056 114.19054 9016 ft 183 kts 165°
2026-04-30 03:32 -27.50263 114.19527 9011 ft 183 kts 165°
2026-04-30 03:32 -27.51464 114.19997 9017 ft 183 kts 165°
2026-04-30 03:32 -27.52670 114.20470 9018 ft 184 kts 165°
2026-04-30 03:32 -27.53892 114.20946 9018 ft 184 kts 165°
2026-04-30 03:33 -27.55099 114.21421 9020 ft 184 kts 165°
2026-04-30 03:33 -27.56302 114.21892 9013 ft 184 kts 165°
2026-04-30 03:33 -27.57523 114.22373 9008 ft 184 kts 165°
2026-04-30 03:33 -27.58726 114.22845 9023 ft 184 kts 165°
2026-04-30 03:34 -27.59949 114.23323 9023 ft 185 kts 165°
2026-04-30 03:34 -27.61168 114.23801 9025 ft 184 kts 165°
2026-04-30 03:34 -27.62382 114.24277 9024 ft 184 kts 165°
2026-04-30 03:34 -27.63593 114.24754 9029 ft 184 kts 165°
2026-04-30 03:35 -27.64808 114.25230 9017 ft 184 kts 165°
2026-04-30 03:35 -27.66020 114.25707 9026 ft 183 kts 165°
2026-04-30 03:35 -27.67233 114.26183 9029 ft 184 kts 165°
2026-04-30 03:35 -27.68438 114.26656 9024 ft 184 kts 165°
2026-04-30 03:36 -27.69644 114.27131 9030 ft 184 kts 165°
2026-04-30 03:36 -27.70867 114.27611 9029 ft 184 kts 165°
2026-04-30 03:36 -27.72074 114.28085 9025 ft 184 kts 165°
2026-04-30 03:36 -27.73277 114.28559 9029 ft 184 kts 165°
2026-04-30 03:37 -27.74495 114.29037 9032 ft 184 kts 165°
2026-04-30 03:37 -27.75711 114.29517 9025 ft 184 kts 165°
2026-04-30 03:37 -27.76919 114.29991 9031 ft 183 kts 165°
2026-04-30 03:37 -27.78134 114.30471 9021 ft 183 kts 165°
2026-04-30 03:38 -27.79329 114.30939 9023 ft 183 kts 165°
2026-04-30 03:38 -27.80549 114.31420 8997 ft 184 kts 165°
2026-04-30 03:38 -27.81754 114.31895 9002 ft 184 kts 165°
2026-04-30 03:38 -27.82960 114.32372 8999 ft 184 kts 165°
2026-04-30 03:39 -27.84167 114.32846 8994 ft 184 kts 165°
2026-04-30 03:39 -27.85380 114.33325 9002 ft 184 kts 165°
2026-04-30 03:39 -27.86593 114.33802 9002 ft 184 kts 165°
2026-04-30 03:39 -27.87806 114.34283 9004 ft 184 kts 165°
2026-04-30 03:40 -27.89017 114.34759 9000 ft 184 kts 165°
2026-04-30 03:40 -27.90219 114.35232 9004 ft 184 kts 165°
2026-04-30 03:40 -27.91439 114.35716 9005 ft 184 kts 165°
2026-04-30 03:40 -27.92646 114.36190 9006 ft 184 kts 165°
2026-04-30 03:41 -27.93851 114.36667 8994 ft 183 kts 165°
2026-04-30 03:41 -27.95062 114.37144 9006 ft 183 kts 165°
2026-04-30 03:41 -27.96266 114.37621 9006 ft 183 kts 165°
2026-04-30 03:41 -27.97482 114.38101 9005 ft 183 kts 165°
2026-04-30 03:42 -27.98678 114.38573 9002 ft 183 kts 165°
2026-04-30 03:42 -27.99893 114.39054 9007 ft 183 kts 165°
2026-04-30 03:42 -28.01099 114.39532 9005 ft 184 kts 165°
2026-04-30 03:42 -28.02303 114.40008 9001 ft 184 kts 165°
2026-04-30 03:43 -28.03525 114.40490 9009 ft 184 kts 165°
2026-04-30 03:43 -28.04731 114.40969 9000 ft 184 kts 165°
2026-04-30 03:43 -28.05935 114.41446 9003 ft 184 kts 165°
2026-04-30 03:43 -28.07155 114.41929 9002 ft 183 kts 165°
2026-04-30 03:44 -28.08353 114.42404 9003 ft 183 kts 165°
2026-04-30 03:44 -28.09562 114.42883 9005 ft 183 kts 165°
2026-04-30 03:44 -28.10776 114.43362 9001 ft 183 kts 165°
2026-04-30 03:44 -28.11980 114.43841 8994 ft 183 kts 165°
2026-04-30 03:45 -28.13181 114.44316 9003 ft 183 kts 165°
2026-04-30 03:45 -28.14383 114.44791 8997 ft 183 kts 165°
2026-04-30 03:45 -28.15599 114.45275 8995 ft 183 kts 165°
2026-04-30 03:45 -28.16796 114.45749 9002 ft 183 kts 165°
2026-04-30 03:46 -28.18003 114.46227 9005 ft 183 kts 165°
2026-04-30 03:46 -28.19216 114.46709 9006 ft 183 kts 165°
2026-04-30 03:46 -28.20416 114.47186 9003 ft 183 kts 165°
2026-04-30 03:46 -28.21627 114.47666 8996 ft 183 kts 165°
2026-04-30 03:47 -28.22833 114.48146 8998 ft 183 kts 165°
2026-04-30 03:47 -28.24037 114.48625 8990 ft 182 kts 165°
2026-04-30 03:47 -28.25227 114.49097 8993 ft 182 kts 165°
2026-04-30 03:47 -28.26426 114.49573 8996 ft 182 kts 165°
2026-04-30 03:48 -28.27630 114.50052 8998 ft 183 kts 165°
2026-04-30 03:48 -28.28842 114.50535 9001 ft 183 kts 165°
2026-04-30 03:48 -28.30038 114.51010 8996 ft 183 kts 165°
2026-04-30 03:48 -28.31244 114.51489 9000 ft 183 kts 165°
2026-04-30 03:49 -28.32448 114.51967 8995 ft 183 kts 165°
2026-04-30 03:49 -28.33654 114.52447 8993 ft 183 kts 165°
2026-04-30 03:49 -28.34870 114.52932 8995 ft 183 kts 165°
2026-04-30 03:49 -28.36059 114.53405 8998 ft 183 kts 165°
2026-04-30 03:50 -28.37262 114.53885 8993 ft 183 kts 165°
2026-04-30 03:50 -28.38467 114.54365 8993 ft 182 kts 165°
2026-04-30 03:50 -28.39665 114.54842 8999 ft 183 kts 165°
2026-04-30 03:50 -28.40875 114.55325 8998 ft 183 kts 165°
2026-04-30 03:51 -28.42074 114.55803 8999 ft 183 kts 165°
2026-04-30 03:51 -28.43284 114.56285 8999 ft 183 kts 165°
2026-04-30 03:51 -28.44487 114.56765 9003 ft 183 kts 165°
2026-04-30 03:51 -28.45692 114.57246 9003 ft 183 kts 165°
2026-04-30 03:52 -28.46899 114.57727 8995 ft 183 kts 165°
2026-04-30 03:52 -28.48102 114.58208 8994 ft 182 kts 165°
2026-04-30 03:52 -28.49292 114.58683 8995 ft 182 kts 165°
2026-04-30 03:52 -28.50495 114.59163 8993 ft 182 kts 165°
2026-04-30 03:53 -28.51685 114.59638 8996 ft 182 kts 165°
2026-04-30 03:53 -28.52897 114.60123 8995 ft 182 kts 165°
2026-04-30 03:53 -28.54094 114.60600 9001 ft 183 kts 165°
2026-04-30 03:53 -28.55289 114.61079 9002 ft 183 kts 165°
2026-04-30 03:54 -28.56493 114.61559 8997 ft 183 kts 165°
2026-04-30 03:54 -28.57701 114.62043 8998 ft 183 kts 165°
2026-04-30 03:54 -28.58907 114.62526 8996 ft 183 kts 165°
2026-04-30 03:54 -28.60108 114.63007 9001 ft 183 kts 165°
2026-04-30 03:55 -28.61316 114.63490 9002 ft 183 kts 165°
2026-04-30 03:55 -28.62508 114.63966 8999 ft 182 kts 165°
2026-04-30 03:55 -28.63714 114.64450 8996 ft 182 kts 165°
2026-04-30 03:55 -28.64918 114.64934 8997 ft 182 kts 165°
2026-04-30 03:56 -28.66104 114.65408 9000 ft 182 kts 165°
2026-04-30 03:56 -28.67309 114.65891 9001 ft 182 kts 165°
2026-04-30 03:56 -28.68501 114.66367 9001 ft 182 kts 165°
2026-04-30 03:56 -28.69703 114.66849 9004 ft 182 kts 165°
2026-04-30 03:57 -28.70896 114.67328 9004 ft 182 kts 165°
2026-04-30 03:57 -28.72091 114.67808 9005 ft 182 kts 165°
2026-04-30 03:57 -28.73295 114.68289 9001 ft 182 kts 165°
2026-04-30 03:57 -28.74485 114.68767 9004 ft 182 kts 165°
2026-04-30 03:58 -28.75690 114.69250 9004 ft 182 kts 164°
2026-04-30 03:58 -28.76906 114.69740 9006 ft 182 kts 164°
2026-04-30 03:58 -28.78091 114.70215 9006 ft 182 kts 164°
2026-04-30 03:58 -28.79304 114.70656 9006 ft 180 kts 172°
2026-04-30 03:59 -28.80536 114.70943 9009 ft 180 kts 173°
2026-04-30 03:59 -28.81766 114.71218 9006 ft 180 kts 173°
2026-04-30 03:59 -28.82991 114.71491 9005 ft 179 kts 173°
2026-04-30 03:59 -28.84210 114.71764 9005 ft 179 kts 173°
2026-04-30 04:00 -28.85444 114.72041 9004 ft 179 kts 173°
2026-04-30 04:00 -28.86680 114.72317 9005 ft 179 kts 173°
2026-04-30 04:00 -28.87903 114.72593 9004 ft 180 kts 173°
2026-04-30 04:00 -28.89129 114.72869 9003 ft 180 kts 173°
2026-04-30 04:01 -28.90374 114.73149 9005 ft 180 kts 173°
2026-04-30 04:01 -28.91610 114.73427 9002 ft 180 kts 173°
2026-04-30 04:01 -28.92832 114.73702 9006 ft 180 kts 173°
2026-04-30 04:01 -28.94069 114.73980 9002 ft 180 kts 173°
2026-04-30 04:02 -28.95291 114.74256 9004 ft 180 kts 173°
2026-04-30 04:02 -28.96532 114.74538 9000 ft 180 kts 173°
2026-04-30 04:02 -28.97751 114.74813 8995 ft 179 kts 173°
2026-04-30 04:02 -28.98984 114.75092 8996 ft 179 kts 173°
2026-04-30 04:03 -29.00213 114.75369 8997 ft 179 kts 173°
2026-04-30 04:03 -29.01439 114.75645 8996 ft 179 kts 173°
2026-04-30 04:03 -29.02672 114.75924 8997 ft 179 kts 173°
2026-04-30 04:03 -29.03893 114.76201 9003 ft 180 kts 173°
2026-04-30 04:04 -29.05135 114.76480 8999 ft 180 kts 173°
2026-04-30 04:04 -29.06365 114.76759 8999 ft 180 kts 173°
2026-04-30 04:04 -29.07597 114.77037 8998 ft 180 kts 173°
2026-04-30 04:04 -29.08833 114.77317 8997 ft 179 kts 173°
2026-04-30 04:05 -29.10052 114.77593 8998 ft 179 kts 173°
2026-04-30 04:05 -29.11277 114.77869 8999 ft 179 kts 173°
2026-04-30 04:05 -29.12513 114.78148 8996 ft 178 kts 173°
2026-04-30 04:05 -29.13732 114.78423 8996 ft 178 kts 173°
2026-04-30 04:06 -29.14948 114.78700 8997 ft 178 kts 173°
2026-04-30 04:06 -29.16165 114.78976 8994 ft 178 kts 173°
2026-04-30 04:06 -29.17385 114.79252 8998 ft 178 kts 173°
2026-04-30 04:06 -29.18620 114.79533 8996 ft 179 kts 173°
2026-04-30 04:07 -29.19841 114.79811 8994 ft 179 kts 173°
2026-04-30 04:07 -29.21059 114.80086 8992 ft 179 kts 173°
2026-04-30 04:07 -29.22291 114.80365 8997 ft 179 kts 173°
2026-04-30 04:08 -29.24736 114.80920 8997 ft 179 kts 173°
2026-04-30 04:08 -29.25965 114.81198 8997 ft 179 kts 173°
2026-04-30 04:08 -29.27180 114.81475 8999 ft 179 kts 173°
2026-04-30 04:08 -29.28408 114.81752 8999 ft 179 kts 173°
2026-04-30 04:09 -29.29646 114.82034 8996 ft 179 kts 173°
2026-04-30 04:09 -29.30859 114.82310 8995 ft 179 kts 173°
2026-04-30 04:09 -29.32096 114.82590 8992 ft 179 kts 173°
2026-04-30 04:09 -29.33304 114.82864 8990 ft 178 kts 173°
2026-04-30 04:10 -29.34529 114.83142 8991 ft 179 kts 173°
2026-04-30 04:10 -29.35761 114.83423 8986 ft 178 kts 173°
2026-04-30 04:10 -29.36973 114.83700 8986 ft 178 kts 173°
2026-04-30 04:10 -29.38202 114.83980 8989 ft 178 kts 173°
2026-04-30 04:11 -29.39414 114.84255 8983 ft 178 kts 173°
2026-04-30 04:11 -29.40635 114.84533 8986 ft 178 kts 173°
2026-04-30 04:11 -29.41851 114.84809 8990 ft 178 kts 173°
2026-04-30 04:11 -29.43080 114.85089 8988 ft 178 kts 173°
2026-04-30 04:12 -29.44299 114.85368 8989 ft 178 kts 173°
2026-04-30 04:12 -29.45522 114.85646 8990 ft 178 kts 173°
2026-04-30 04:12 -29.46738 114.85923 8988 ft 178 kts 173°
2026-04-30 04:12 -29.47955 114.86199 8986 ft 178 kts 173°
2026-04-30 04:13 -29.49177 114.86478 8988 ft 178 kts 173°
2026-04-30 04:13 -29.50381 114.86753 8990 ft 178 kts 173°
2026-04-30 04:13 -29.51612 114.87033 8990 ft 178 kts 173°
2026-04-30 04:13 -29.52828 114.87311 8988 ft 178 kts 173°
2026-04-30 04:14 -29.54051 114.87590 8989 ft 178 kts 173°
2026-04-30 04:14 -29.55271 114.87869 8984 ft 178 kts 173°
2026-04-30 04:14 -29.56494 114.88148 8981 ft 178 kts 173°
2026-04-30 04:14 -29.57700 114.88424 8981 ft 178 kts 173°
2026-04-30 04:15 -29.58927 114.88706 8993 ft 177 kts 173°
2026-04-30 04:15 -29.60123 114.89095 8969 ft 182 kts 154°
2026-04-30 04:15 -29.61283 114.89475 8987 ft 172 kts 191°
2026-04-30 04:15 -29.62490 114.89481 8983 ft 176 kts 174°
2026-04-30 04:16 -29.63691 114.89714 8981 ft 176 kts 174°
2026-04-30 04:16 -29.64908 114.89964 8983 ft 176 kts 174°
2026-04-30 04:16 -29.66119 114.90214 8980 ft 177 kts 174°
2026-04-30 04:16 -29.67327 114.90462 8980 ft 177 kts 174°
2026-04-30 04:17 -29.68542 114.90712 8977 ft 177 kts 174°
2026-04-30 04:17 -29.69760 114.90964 8977 ft 177 kts 174°
2026-04-30 04:17 -29.70979 114.91216 8977 ft 177 kts 174°
2026-04-30 04:17 -29.72197 114.91467 8984 ft 177 kts 174°
2026-04-30 04:18 -29.73414 114.91717 8984 ft 178 kts 174°
2026-04-30 04:18 -29.74635 114.91969 8983 ft 177 kts 174°
2026-04-30 04:18 -29.75849 114.92220 8982 ft 178 kts 174°
2026-04-30 04:18 -29.77069 114.92471 8983 ft 177 kts 174°
2026-04-30 04:19 -29.78286 114.92722 8980 ft 177 kts 174°
2026-04-30 04:19 -29.79507 114.92975 8981 ft 177 kts 174°
2026-04-30 04:19 -29.80728 114.93227 8985 ft 177 kts 174°
2026-04-30 04:19 -29.81931 114.93475 8983 ft 177 kts 174°
2026-04-30 04:20 -29.83168 114.93727 8783 ft 181 kts 174°
2026-04-30 04:20 -29.84408 114.93982 8557 ft 181 kts 174°
2026-04-30 04:20 -29.85650 114.94237 8343 ft 180 kts 174°
2026-04-30 04:20 -29.86880 114.94488 8125 ft 179 kts 174°
2026-04-30 04:21 -29.88094 114.94737 7907 ft 177 kts 174°
2026-04-30 04:21 -29.89305 114.94985 7703 ft 175 kts 174°
2026-04-30 04:21 -29.90409 114.95575 7516 ft 177 kts 146°
2026-04-30 04:21 -29.91389 114.96407 7340 ft 175 kts 146°
2026-04-30 04:22 -29.92353 114.97255 7165 ft 173 kts 146°
2026-04-30 04:22 -29.93312 114.98105 6988 ft 172 kts 146°
2026-04-30 04:22 -29.94259 114.98933 6818 ft 171 kts 146°
2026-04-30 04:22 -29.95209 114.99762 6645 ft 170 kts 146°
2026-04-30 04:23 -29.96149 115.00581 6469 ft 169 kts 146°
2026-04-30 04:23 -29.97088 115.01395 6295 ft 168 kts 146°
2026-04-30 04:23 -29.98022 115.02209 6126 ft 168 kts 146°
2026-04-30 04:23 -29.98944 115.03022 5957 ft 167 kts 146°
2026-04-30 04:24 -29.99863 115.03837 5784 ft 166 kts 146°
2026-04-30 04:24 -30.00783 115.04652 5613 ft 165 kts 146°
2026-04-30 04:24 -30.01686 115.05453 5445 ft 164 kts 146°
2026-04-30 04:24 -30.02587 115.06252 5272 ft 163 kts 146°
2026-04-30 04:25 -30.03493 115.07056 5097 ft 163 kts 146°
2026-04-30 04:25 -30.04396 115.07852 4922 ft 162 kts 146°
2026-04-30 04:25 -30.05278 115.08630 4775 ft 160 kts 146°
2026-04-30 04:25 -30.06164 115.09412 4628 ft 159 kts 146°
2026-04-30 04:26 -30.07033 115.10179 4476 ft 157 kts 146°
2026-04-30 04:26 -30.07911 115.10955 4320 ft 156 kts 146°
2026-04-30 04:26 -30.08768 115.11710 4175 ft 155 kts 146°
2026-04-30 04:26 -30.09629 115.12466 4027 ft 154 kts 146°
2026-04-30 04:27 -30.10487 115.13184 3871 ft 152 kts 154°
2026-04-30 04:27 -30.11510 115.13269 3731 ft 146 kts 188°
2026-04-30 04:27 -30.12466 115.13051 3575 ft 136 kts 194°
2026-04-30 04:27 -30.13358 115.12754 3427 ft 127 kts 196°
2026-04-30 04:28 -30.14136 115.12465 3295 ft 109 kts 197°
2026-04-30 04:28 -30.14802 115.12203 3225 ft 84 kts 197°
2026-04-30 04:28 -30.15349 115.11987 3113 ft 91 kts 197°
2026-04-30 04:28 -30.16040 115.11712 2961 ft 116 kts 198°
2026-04-30 04:29 -30.16876 115.11372 2787 ft 136 kts 199°
2026-04-30 04:29 -30.17812 115.10984 2604 ft 148 kts 198°
2026-04-30 04:29 -30.18810 115.10571 2408 ft 155 kts 199°
2026-04-30 04:29 -30.19796 115.10048 2202 ft 159 kts 212°
2026-04-30 04:30 -30.20781 115.09464 2001 ft 159 kts 202°
2026-04-30 04:30 -30.21808 115.08971 1806 ft 159 kts 199°
2026-04-30 04:30 -30.22834 115.08536 1612 ft 158 kts 201°
2026-04-30 04:30 -30.23897 115.08182 1408 ft 157 kts 191°
2026-04-30 04:31 -30.24945 115.07819 1203 ft 155 kts 196°
2026-04-30 04:31 -30.25891 115.07381 985 ft 138 kts 202°
2026-04-30 04:31 -30.26676 115.07027 768 ft 110 kts 196°
2026-04-30 04:31 -30.27303 115.06799 617 ft 86 kts 199°
2026-04-30 04:32 -30.27841 115.06551 476 ft 80 kts 197°
2026-04-30 04:32 -30.28338 115.06359 368 ft 70 kts 198°
2026-04-30 04:32 -30.28797 115.06161 250 ft 70 kts 200°
2026-04-30 04:32 -30.29261 115.05976 140 ft 69 kts 199°
2026-04-30 04:33 -30.29689 115.05795 24 ft 61 kts 196°
2026-04-30 04:33 -30.29979 115.05672 14 ft 21 kts 199°
2026-04-30 04:33 -30.30027 115.05603 14 ft 10 kts 289°
2026-04-30 04:33 -30.30031 115.05555 14 ft 4 kts 150°
2026-04-30 04:34 -30.30034 115.05559 14 ft 0 kts 110°